Orbital Elements at Epoch 2459200.5 (2020-Dec-17.0) TDB
Reference: JPL 20 (heliocentric ecliptic J2000)
Element | Value | Uncertainty (1-sigma) | Units |
e | .1893843129621455 | 4.6276e-08 | |
a | 2.676631027408359 | 1.4129e-08 | au |
q | 2.169719099229465 | 1.2179e-07 | au |
i | 14.42005899099913 | 5.2009e-06 | deg |
node | 140.3668032700679 | 1.9504e-05 | deg |
peri | 38.14111952093287 | 2.4056e-05 | deg |
M | 102.9410067367947 | 1.4356e-05 | deg |
tp | 2458743.130606063936 (2019-Sep-16.63060606) | 6.2034e-05 | TDB |
period | 1599.488746384391 4.38 | 1.2665e-05 3.467e-08 | d yr |
n | .2250719180199123 | 1.7821e-09 | deg/d |
Q | 3.183542955587253 | 1.6805e-08 | au |
|
| | Orbit Determination Parameters
Additional Information
|